DAL7326 LIMF-EBOS

Flight info

Callsign DAL7326
Flight time 1h 22m
Altitude 32000
Route KUKEV DCT MOLUS DCT GILIR DCT PENDU DCT IXILU DCT GIVOR DCT SORAL DCT IBERA DCT RITAX M624 REMBA DCT BUB L608 DENUT
Aircraft A20N/M-SDE2E3FGHIRWXY/LB1

Departure

Time 2026-05-06 16:28
Airport Turin Airport (LIMF)

Arrival

Time 2026-05-06 17:50
Airport Ostend-Bruges International Airport (EBOS)
Time Latitude Longitude Altitude Speed Heading
2026-05-06 16:17 45.19272 7.64519 953 ft 0 kts 257°
2026-05-06 16:21 45.19275 7.64537 952 ft 3 kts 256°
2026-05-06 16:22 45.19278 7.64554 955 ft 3 kts 256°
2026-05-06 16:22 45.19282 7.64581 956 ft 3 kts 256°
2026-05-06 16:22 45.19288 7.64612 957 ft 4 kts 256°
2026-05-06 16:22 45.19295 7.64654 955 ft 4 kts 233°
2026-05-06 16:23 45.19320 7.64670 955 ft 4 kts 181°
2026-05-06 16:23 45.19324 7.64671 956 ft 0 kts 181°
2026-05-06 16:24 45.19322 7.64671 955 ft 2 kts 181°
2026-05-06 16:24 45.19272 7.64669 957 ft 12 kts 181°
2026-05-06 16:24 45.19161 7.64663 951 ft 19 kts 182°
2026-05-06 16:25 45.19021 7.64655 948 ft 21 kts 182°
2026-05-06 16:25 45.18871 7.64646 940 ft 20 kts 182°
2026-05-06 16:25 45.18735 7.64634 934 ft 17 kts 184°
2026-05-06 16:25 45.18654 7.64646 934 ft 4 kts 155°
2026-05-06 16:26 45.18643 7.64657 934 ft 0 kts 143°
2026-05-06 16:26 45.18642 7.64659 936 ft 0 kts 141°
2026-05-06 16:26 45.18641 7.64660 936 ft 1 kts 139°
2026-05-06 16:26 45.18619 7.64709 932 ft 11 kts 110°
2026-05-06 16:27 45.18641 7.64838 931 ft 16 kts 47°
2026-05-06 16:27 45.18739 7.64882 934 ft 14 kts
2026-05-06 16:27 45.19018 7.64899 946 ft 74 kts
2026-05-06 16:27 45.19738 7.64946 959 ft 131 kts
2026-05-06 16:28 45.20800 7.65010 1103 ft 164 kts
2026-05-06 16:28 45.21931 7.65061 1700 ft 162 kts
2026-05-06 16:28 45.23065 7.65123 2398 ft 162 kts
2026-05-06 16:28 45.24202 7.65199 3067 ft 170 kts
2026-05-06 16:29 45.25425 7.65275 3511 ft 190 kts
2026-05-06 16:29 45.26794 7.65646 4083 ft 208 kts 29°
2026-05-06 16:29 45.27872 7.66997 4802 ft 212 kts 60°
2026-05-06 16:29 45.28253 7.68987 5605 ft 211 kts 93°
2026-05-06 16:30 45.27852 7.71022 6275 ft 221 kts 115°
2026-05-06 16:30 45.27405 7.72413 6662 ft 235 kts 114°
2026-05-06 16:30 45.26469 7.75350 7509 ft 253 kts 114°
2026-05-06 16:30 45.25752 7.77636 8433 ft 255 kts 114°
2026-05-06 16:31 45.25013 7.79946 9274 ft 259 kts 118°
2026-05-06 16:31 45.24034 7.82115 10106 ft 262 kts 126°
2026-05-06 16:31 45.22964 7.84236 10956 ft 266 kts 125°
2026-05-06 16:31 45.21897 7.86366 11767 ft 269 kts 125°
2026-05-06 16:32 45.20805 7.88549 12548 ft 273 kts 125°
2026-05-06 16:32 45.19695 7.90768 13292 ft 277 kts 125°
2026-05-06 16:32 45.18576 7.93006 14054 ft 280 kts 125°
2026-05-06 16:32 45.17440 7.95266 14762 ft 283 kts 127°
2026-05-06 16:33 45.15969 7.97115 15432 ft 287 kts 152°
2026-05-06 16:33 45.14037 7.97904 16070 ft 293 kts 177°
2026-05-06 16:33 45.12038 7.97458 16649 ft 299 kts 200°
2026-05-06 16:34 45.08162 7.94698 17353 ft 329 kts 223°
2026-05-06 16:34 45.06836 7.92077 17896 ft 335 kts 246°
2026-05-06 16:34 45.06312 7.88864 18508 ft 339 kts 269°
2026-05-06 16:34 45.06692 7.85555 19085 ft 343 kts 290°
2026-05-06 16:35 45.07609 7.82427 19672 ft 346 kts 294°
2026-05-06 16:35 45.08796 7.79455 20241 ft 349 kts 308°
2026-05-06 16:35 45.10435 7.76961 20791 ft 351 kts 321°
2026-05-06 16:35 45.12429 7.74931 21316 ft 356 kts 326°
2026-05-06 16:36 45.14516 7.72874 21470 ft 372 kts 326°
2026-05-06 16:36 45.16670 7.70704 21635 ft 388 kts 325°
2026-05-06 16:36 45.18910 7.68429 21769 ft 403 kts 325°
2026-05-06 16:36 45.21220 7.66079 22069 ft 412 kts 325°
2026-05-06 16:37 45.23555 7.63699 22596 ft 414 kts 325°
2026-05-06 16:37 45.25904 7.61301 23103 ft 418 kts 325°
2026-05-06 16:37 45.28250 7.58907 23573 ft 421 kts 325°
2026-05-06 16:37 45.30641 7.56464 24055 ft 424 kts 325°
2026-05-06 16:38 45.33011 7.54044 24466 ft 429 kts 325°
2026-05-06 16:38 45.35455 7.51544 24790 ft 433 kts 325°
2026-05-06 16:38 45.37923 7.49016 25055 ft 439 kts 324°
2026-05-06 16:38 45.40416 7.46459 25485 ft 439 kts 324°
2026-05-06 16:39 45.42882 7.43928 26073 ft 437 kts 324°
2026-05-06 16:39 45.45371 7.41373 26270 ft 445 kts 324°
2026-05-06 16:39 45.47871 7.38804 26393 ft 451 kts 324°
2026-05-06 16:39 45.50465 7.36135 26642 ft 453 kts 324°
2026-05-06 16:40 45.52995 7.33529 26812 ft 456 kts 324°
2026-05-06 16:40 45.55578 7.30864 27103 ft 455 kts 324°
2026-05-06 16:40 45.58148 7.28210 27244 ft 459 kts 324°
2026-05-06 16:40 45.60752 7.25518 27300 ft 463 kts 324°
2026-05-06 16:41 45.63357 7.22823 27631 ft 462 kts 325°
2026-05-06 16:41 45.66058 7.20415 27997 ft 458 kts 333°
2026-05-06 16:41 45.68899 7.18459 28491 ft 456 kts 336°
2026-05-06 16:41 45.71801 7.16552 28801 ft 458 kts 336°
2026-05-06 16:42 45.74729 7.14613 28851 ft 465 kts 336°
2026-05-06 16:42 45.77677 7.12659 29012 ft 467 kts 336°
2026-05-06 16:42 45.80605 7.10717 29102 ft 471 kts 336°
2026-05-06 16:43 45.86601 7.06740 29441 ft 473 kts 336°
2026-05-06 16:43 45.89584 7.04759 29772 ft 471 kts 336°
2026-05-06 16:43 45.92579 7.02769 29779 ft 476 kts 335°
2026-05-06 16:44 45.98594 6.98763 29904 ft 481 kts 335°
2026-05-06 16:44 46.01618 6.96746 30211 ft 478 kts 335°
2026-05-06 16:44 46.04632 6.94733 30500 ft 477 kts 335°
2026-05-06 16:44 46.07641 6.92721 30836 ft 476 kts 335°
2026-05-06 16:45 46.10657 6.90702 30882 ft 481 kts 335°
2026-05-06 16:45 46.16668 6.86672 31347 ft 480 kts 335°
2026-05-06 16:45 46.19696 6.84637 31758 ft 478 kts 335°
2026-05-06 16:46 46.22726 6.82600 31910 ft 480 kts 335°
2026-05-06 16:46 46.25755 6.80559 32132 ft 480 kts 335°
2026-05-06 16:46 46.28794 6.78511 32169 ft 478 kts 335°
2026-05-06 16:47 46.34763 6.74479 32169 ft 480 kts 335°
2026-05-06 16:47 46.40808 6.70385 32167 ft 473 kts 335°
2026-05-06 16:48 46.46729 6.66348 32169 ft 469 kts 335°
2026-05-06 16:48 46.52586 6.62217 32169 ft 471 kts 334°
2026-05-06 16:49 46.58495 6.58032 32169 ft 472 kts 334°
2026-05-06 16:49 46.64413 6.53845 32169 ft 471 kts 334°
2026-05-06 16:50 46.70246 6.49715 32167 ft 472 kts 334°
2026-05-06 16:50 46.76169 6.45508 32160 ft 473 kts 334°
2026-05-06 16:51 46.82114 6.41276 32168 ft 476 kts 334°
2026-05-06 16:51 46.88015 6.37066 32170 ft 473 kts 334°
2026-05-06 16:52 46.93900 6.32856 32169 ft 473 kts 334°
2026-05-06 16:52 46.99817 6.28614 32170 ft 472 kts 334°
2026-05-06 16:53 47.05710 6.24375 32174 ft 471 kts 334°
2026-05-06 16:53 47.11585 6.20146 32167 ft 471 kts 334°
2026-05-06 16:54 47.17420 6.15937 32165 ft 471 kts 334°
2026-05-06 16:54 47.23304 6.11683 32167 ft 470 kts 334°
2026-05-06 16:55 47.29182 6.07424 32175 ft 470 kts 334°
2026-05-06 16:55 47.35266 6.04126 32173 ft 469 kts 349°
2026-05-06 16:56 47.41747 6.03437 32169 ft 467 kts
2026-05-06 16:56 47.48226 6.03581 32167 ft 467 kts
2026-05-06 16:57 47.54738 6.03710 32166 ft 467 kts
2026-05-06 16:57 47.61259 6.03853 32175 ft 467 kts
2026-05-06 16:58 47.67748 6.03997 32175 ft 468 kts
2026-05-06 16:58 47.74167 6.04471 32173 ft 467 kts
2026-05-06 16:59 47.80490 6.06598 32172 ft 466 kts 15°
2026-05-06 16:59 47.86786 6.08940 32167 ft 466 kts 15°
2026-05-06 17:00 47.93089 6.11296 32167 ft 466 kts 15°
2026-05-06 17:00 47.99348 6.13656 32162 ft 466 kts 15°
2026-05-06 17:01 48.05610 6.16026 32162 ft 466 kts 15°
2026-05-06 17:01 48.11909 6.18417 32164 ft 465 kts 15°
2026-05-06 17:02 48.18167 6.20797 32167 ft 465 kts 15°
2026-05-06 17:02 48.24467 6.23200 32165 ft 466 kts 15°
2026-05-06 17:03 48.30729 6.25595 32167 ft 466 kts 15°
2026-05-06 17:03 48.35885 6.27571 32171 ft 467 kts 15°
2026-05-06 17:04 48.42216 6.30002 32170 ft 465 kts 15°
2026-05-06 17:04 48.48477 6.32413 32170 ft 466 kts 15°
2026-05-06 17:05 48.54802 6.34857 32170 ft 465 kts 15°
2026-05-06 17:05 48.61040 6.37270 32169 ft 466 kts 15°
2026-05-06 17:06 48.67381 6.39255 32168 ft 466 kts
2026-05-06 17:06 48.73799 6.39907 32167 ft 467 kts
2026-05-06 17:07 48.80256 6.40583 32178 ft 467 kts
2026-05-06 17:07 48.86770 6.41254 32178 ft 468 kts
2026-05-06 17:08 48.93261 6.41916 32180 ft 468 kts
2026-05-06 17:08 48.99778 6.42578 32169 ft 468 kts
2026-05-06 17:09 49.06176 6.43231 32170 ft 467 kts
2026-05-06 17:09 49.12648 6.42879 32169 ft 468 kts 352°
2026-05-06 17:10 49.19006 6.40596 32169 ft 469 kts 345°
2026-05-06 17:10 49.25278 6.38048 32171 ft 469 kts 346°
2026-05-06 17:11 49.31589 6.35470 32175 ft 469 kts 346°
2026-05-06 17:11 49.37813 6.32904 32177 ft 469 kts 345°
2026-05-06 17:12 49.44099 6.30301 32180 ft 469 kts 345°
2026-05-06 17:12 49.50370 6.27478 32179 ft 470 kts 339°
2026-05-06 17:13 49.56276 6.23044 32173 ft 470 kts 332°
2026-05-06 17:13 49.62079 6.18338 32172 ft 470 kts 333°
2026-05-06 17:14 49.67887 6.13620 32173 ft 470 kts 333°
2026-05-06 17:14 49.73501 6.09030 32173 ft 470 kts 333°
2026-05-06 17:15 49.79274 6.04292 32174 ft 470 kts 332°
2026-05-06 17:15 49.85056 5.99533 32169 ft 470 kts 332°
2026-05-06 17:16 49.90849 5.94751 32167 ft 470 kts 332°
2026-05-06 17:16 49.96581 5.90008 32162 ft 470 kts 332°
2026-05-06 17:17 50.02365 5.85208 32159 ft 470 kts 332°
2026-05-06 17:17 50.07943 5.79926 32157 ft 470 kts 323°
2026-05-06 17:18 50.12817 5.73069 32159 ft 470 kts 316°
2026-05-06 17:18 50.17532 5.65996 32160 ft 471 kts 316°
2026-05-06 17:19 50.22233 5.58918 32160 ft 471 kts 316°
2026-05-06 17:19 50.26920 5.51821 32166 ft 471 kts 316°
2026-05-06 17:20 50.31641 5.44643 32176 ft 471 kts 316°
2026-05-06 17:20 50.36311 5.37521 32175 ft 472 kts 316°
2026-05-06 17:21 50.40867 5.30555 32176 ft 472 kts 316°
2026-05-06 17:21 50.45574 5.23339 32180 ft 472 kts 316°
2026-05-06 17:22 50.50302 5.16067 32181 ft 472 kts 316°
2026-05-06 17:22 50.54981 5.08847 32170 ft 470 kts 316°
2026-05-06 17:23 50.59616 5.01676 32169 ft 470 kts 316°
2026-05-06 17:23 50.64279 4.94440 32169 ft 470 kts 315°
2026-05-06 17:24 50.68865 4.87307 32169 ft 470 kts 315°
2026-05-06 17:24 50.73518 4.80057 32169 ft 469 kts 315°
2026-05-06 17:25 50.78158 4.72804 32167 ft 469 kts 315°
2026-05-06 17:25 50.82780 4.65555 32164 ft 469 kts 315°
2026-05-06 17:26 50.87407 4.58279 32162 ft 469 kts 315°
2026-05-06 17:26 50.91528 4.50427 32161 ft 469 kts 303°
2026-05-06 17:27 50.94846 4.41766 32161 ft 469 kts 301°
2026-05-06 17:27 50.98238 4.32959 32164 ft 469 kts 301°
2026-05-06 17:28 51.01626 4.24111 32166 ft 469 kts 301°
2026-05-06 17:28 51.05005 4.15235 32167 ft 469 kts 301°
2026-05-06 17:29 51.08386 4.06322 32166 ft 469 kts 301°
2026-05-06 17:29 51.11754 3.97409 32168 ft 469 kts 301°
2026-05-06 17:30 51.15099 3.88524 32169 ft 470 kts 301°
2026-05-06 17:30 51.18455 3.79581 32170 ft 470 kts 301°
2026-05-06 17:31 51.21800 3.70638 32172 ft 470 kts 301°
2026-05-06 17:31 51.25123 3.61722 32173 ft 470 kts 301°
2026-05-06 17:32 51.27962 3.52422 32171 ft 470 kts 285°
2026-05-06 17:32 51.28524 3.47298 32109 ft 465 kts 273°
2026-05-06 17:32 51.28412 3.42142 31944 ft 450 kts 260°
2026-05-06 17:32 51.27750 3.37348 31779 ft 432 kts 255°
2026-05-06 17:33 51.26971 3.32829 31603 ft 414 kts 254°
2026-05-06 17:33 51.26228 3.28513 31427 ft 396 kts 255°
2026-05-06 17:33 51.25542 3.24331 30959 ft 387 kts 255°
2026-05-06 17:33 51.24891 3.20178 30280 ft 384 kts 256°
2026-05-06 17:34 51.24264 3.16062 29636 ft 380 kts 256°
2026-05-06 17:34 51.23637 3.11979 28991 ft 375 kts 252°
2026-05-06 17:34 51.22529 3.08264 28302 ft 370 kts 232°
2026-05-06 17:34 51.20737 3.05390 27605 ft 364 kts 212°
2026-05-06 17:35 51.18477 3.03692 26908 ft 358 kts 192°
2026-05-06 17:35 51.16040 3.03386 26334 ft 349 kts 171°
2026-05-06 17:35 51.13667 3.04171 25442 ft 352 kts 169°
2026-05-06 17:36 51.08945 3.02902 23649 ft 362 kts 210°
2026-05-06 17:36 51.07019 3.00385 22986 ft 360 kts 230°
2026-05-06 17:36 51.05764 2.96980 22308 ft 357 kts 251°
2026-05-06 17:36 51.05351 2.93121 21632 ft 355 kts 272°
2026-05-06 17:37 51.05830 2.89318 20961 ft 351 kts 292°
2026-05-06 17:37 51.06521 2.87004 20540 ft 349 kts 298°
2026-05-06 17:37 51.07720 2.83663 19938 ft 346 kts 300°
2026-05-06 17:37 51.08913 2.78979 19114 ft 341 kts 281°
2026-05-06 17:38 51.09127 2.76506 18694 ft 339 kts 272°
2026-05-06 17:38 51.09081 2.72787 18097 ft 336 kts 264°
2026-05-06 17:38 51.08769 2.69100 17466 ft 334 kts 260°
2026-05-06 17:38 51.08317 2.65498 16839 ft 332 kts 256°
2026-05-06 17:39 51.07789 2.61993 16224 ft 330 kts 256°
2026-05-06 17:39 51.07248 2.58441 15599 ft 328 kts 256°
2026-05-06 17:39 51.06712 2.54921 14978 ft 327 kts 256°
2026-05-06 17:39 51.06179 2.51419 14349 ft 326 kts 256°
2026-05-06 17:40 51.05648 2.47931 13717 ft 324 kts 256°
2026-05-06 17:40 51.05121 2.44465 13219 ft 319 kts 256°
2026-05-06 17:40 51.04601 2.41059 12701 ft 314 kts 256°
2026-05-06 17:40 51.04249 2.37657 12191 ft 309 kts 271°
2026-05-06 17:41 51.04709 2.34373 11686 ft 303 kts 296°
2026-05-06 17:41 51.05962 2.31742 11187 ft 297 kts 322°
2026-05-06 17:41 51.07743 2.30203 10695 ft 289 kts 341°
2026-05-06 17:41 51.09631 2.29155 10189 ft 285 kts 346°
2026-05-06 17:42 51.11567 2.28998 9686 ft 276 kts 13°
2026-05-06 17:42 51.13279 2.30220 9186 ft 268 kts 41°
2026-05-06 17:42 51.14435 2.32456 8691 ft 261 kts 67°
2026-05-06 17:42 51.14824 2.35222 8186 ft 255 kts 88°
2026-05-06 17:43 51.14898 2.37999 7707 ft 254 kts 88°
2026-05-06 17:43 51.14969 2.40795 7225 ft 251 kts 88°
2026-05-06 17:43 51.15040 2.43539 6764 ft 239 kts 88°
2026-05-06 17:43 51.15110 2.46084 6305 ft 222 kts 88°
2026-05-06 17:44 51.15178 2.48463 5847 ft 209 kts 88°
2026-05-06 17:44 51.15243 2.50716 5443 ft 196 kts 88°
2026-05-06 17:44 51.15303 2.52814 5026 ft 186 kts 88°
2026-05-06 17:44 51.15344 2.54826 4610 ft 177 kts 87°
2026-05-06 17:45 51.15476 2.56737 4227 ft 171 kts 82°
2026-05-06 17:45 51.15701 2.58575 3812 ft 168 kts 78°
2026-05-06 17:45 51.15959 2.60379 3355 ft 164 kts 78°
2026-05-06 17:45 51.16217 2.62132 2845 ft 161 kts 78°
2026-05-06 17:46 51.16467 2.63825 2533 ft 147 kts 78°
2026-05-06 17:46 51.16687 2.65316 2478 ft 144 kts 78°
2026-05-06 17:46 51.16949 2.67100 2318 ft 173 kts 77°
2026-05-06 17:46 51.17211 2.68849 2105 ft 152 kts 78°
2026-05-06 17:47 51.17436 2.70372 1919 ft 135 kts 78°
2026-05-06 17:47 51.17649 2.71809 1747 ft 135 kts 77°
2026-05-06 17:47 51.17864 2.73251 1586 ft 133 kts 78°
2026-05-06 17:47 51.18074 2.74671 1412 ft 132 kts 78°
2026-05-06 17:48 51.18290 2.76119 1243 ft 133 kts 78°
2026-05-06 17:48 51.18499 2.77522 1071 ft 132 kts 78°
2026-05-06 17:48 51.18714 2.78968 887 ft 134 kts 78°
2026-05-06 17:48 51.18935 2.80412 724 ft 135 kts 78°
2026-05-06 17:49 51.19156 2.81876 562 ft 135 kts 79°
2026-05-06 17:49 51.19364 2.83322 380 ft 135 kts 79°
2026-05-06 17:49 51.19581 2.84786 154 ft 135 kts 77°
2026-05-06 17:49 51.19796 2.86209 22 ft 125 kts 77°
2026-05-06 17:50 51.19960 2.87302 16 ft 50 kts 76°
2026-05-06 17:50 51.20096 2.87536 14 ft 16 kts 36°
2026-05-06 17:50 51.20191 2.87587 13 ft 16 kts 355°
2026-05-06 17:50 51.20303 2.87552 13 ft 12 kts 332°
2026-05-06 17:51 51.20313 2.87426 14 ft 14 kts 256°
2026-05-06 17:51 51.20287 2.87262 14 ft 16 kts 256°
2026-05-06 17:51 51.20262 2.87073 14 ft 19 kts 259°
2026-05-06 17:51 51.20235 2.86864 14 ft 14 kts 256°
2026-05-06 17:52 51.20233 2.86767 14 ft 8 kts 311°
2026-05-06 17:52 51.20293 2.86739 14 ft 6 kts 348°
2026-05-06 17:52 51.20301 2.86737 14 ft 0 kts 349°